Location: Most
(50.5133°N, 13.6207°E)
Time: 21:42:06
(UTC+02:00)

ISS - Pass Details

Date: 19 May 2025
Orbit: 415 x 416 km, 51.6° (Epoch: 16 June)

Event Time Altitude Azimuth Distance (km) Brightness Sun altitude
Rises 00:39:08 0° 283° (WNW) 2,360 0.3 -19.5°
Reaches altitude 10° 00:41:40 10° 264° (W) 1,492 -1.0 -19.6°
Enters shadow 00:41:51 11° 262° (W) 1,442 -1.1 -19.6°
